Wetbulb
63.87 62.02 62.22 61.15 52.53 51.14 46.33 47.23 50.88 49.30 50.15 53.13 53.31 52.42 51.31 52.61 50.44 48.97 62.83 67.07 67.06 69.99 72.13 72.58 72.84 73.63 73.85 73.49 73.35 73.47 73.47 73.29 73.11 72.58 72.23 71.88 70.90 70.29 69.47 68.72 68.00 67.76 67.08 65.86 64.68 64.21 65.05 66.62 67.38
61.69 59.99 61.16 57.76 49.14 45.23 45.63 49.20 48.06 50.13 51.92 53.40 53.34 53.12 52.16 50.66 56.57 58.88 61.78 66.26 67.51 70.04 72.03 72.49 71.52 73.17 73.60 73.23 73.08 73.26 73.41 73.29 72.52 72.17 71.42 71.34 70.54 69.93 69.17 68.24 67.44 67.27 66.65 65.46 64.22 63.62 64.41 65.38 67.10
60.74 58.09 56.94 52.85 48.60 45.21 45.44 48.75 49.72 50.89 52.69 52.48 52.06 54.49 53.54 52.75 57.35 58.88 63.43 66.65 68.36 69.27 71.81 72.44 71.42 72.78 73.35 73.04 73.04 72.98 73.29 72.65 72.13 71.66 71.64 71.12 70.56 69.41 68.55 67.57 66.70 66.43 66.14 64.88 63.51 62.83 63.56 64.47 66.57
59.34 58.29 55.37 49.15 45.48 47.18 47.62 48.98 50.23 50.66 52.25 53.05 52.85 51.06 55.06 59.24 59.38 62.46 64.60 67.29 68.27 68.83 71.50 70.73 71.85 72.76 72.91 72.42 72.32 72.67 72.45 72.14 71.75 71.47 71.04 70.62 69.61 68.73 67.94 66.81 66.02 65.43 65.40 64.32 62.73 61.98 62.60 64.22 65.81
58.71 55.75 49.87 47.60 46.36 47.79 49.33 50.58 50.90 49.84 50.75 51.04 52.19 50.10 52.50 57.50 63.29 64.44 66.26 67.34 67.76 69.08 71.22 72.35 70.93 71.79 72.05 71.80 71.96 71.60 71.87 71.53 71.41 71.14 70.86 69.65 68.88 68.09 67.00 66.35 65.35 65.19 64.95 63.82 62.46 61.02 60.87 61.80 63.25
54.28 53.09 47.02 45.25 46.61 48.39 49.93 51.05 50.96 50.50 50.96 50.66 50.11 50.49 52.81 57.84 60.89 63.81 66.30 66.83 68.41 68.86 70.50 71.80 68.72 69.35 70.49 70.66 70.79 70.85 71.19 70.89 70.79 70.39 70.28 69.21 68.50 67.38 66.46 65.72 65.13 65.13 64.51 63.54 62.29 60.54 59.28 59.58 59.69
51.40 48.89 45.83 46.17 46.46 47.33 49.15 51.40 50.25 49.90 49.61 49.98 52.34 49.25 53.33 55.56 57.94 62.82 63.81 66.72 68.07 69.38 69.75 70.51 71.32 70.44 66.84 68.97 68.48 69.99 70.29 70.33 70.04 70.00 69.72 68.89 68.10 67.44 66.55 66.01 65.08 64.83 64.17 63.23 62.20 61.04 58.29 57.35 57.13
53.23 50.13 45.23 45.81 45.22 46.00 50.21 50.40 51.27 50.34 49.74 52.72 53.36 49.22 50.49 53.23 56.40 61.18 62.87 63.90 67.26 68.39 68.97 69.34 70.26 71.43 71.56 71.61 65.83 66.78 68.53 69.09 69.12 68.46 67.01 65.63 65.36 65.20 64.81 63.83 65.35 64.65 64.05 63.01 62.03 60.36 57.03 53.96 54.06
53.13 47.00 44.71 44.77 45.06 47.15 50.47 49.16 50.91 52.03 50.60 51.00 51.38 51.88 51.27 53.03 55.47 58.23 60.02 60.12 61.96 62.96 65.85 68.64 68.99 68.92 70.39 71.16 68.97 65.87 65.73 66.39 66.10 65.97 63.58 62.72 64.94 65.63 64.43 62.78 64.36 63.89 63.74 62.91 61.83 59.96 56.97 51.91 51.64
50.53 46.79 45.41 47.31 48.29 47.64 49.97 49.81 50.24 49.62 49.72 49.79 49.97 51.67 52.12 53.03 53.75 54.29 54.96 55.87 55.86 56.10 56.87 59.14 66.75 68.05 68.20 68.87 70.27 70.35 70.18 70.15 69.72 69.35 67.10 67.07 66.84 66.96 64.41 60.97 61.09 61.63 62.21 62.70 60.90 58.89 56.92 59.30 57.42
49.77 46.02 47.20 46.70 48.79 50.16 49.50 49.09 50.87 49.09 48.00 50.09 49.56 50.89 50.61 51.50 51.87 52.01 52.59 52.92 52.97 54.20 55.84 56.06 57.72 65.75 66.97 68.25 69.41 69.57 69.92 69.76 69.79 68.95 68.98 68.40 66.84 64.97 63.84 62.41 62.40 61.34 58.78 60.33 60.22 61.00 60.52 59.14 57.70
46.80 48.51 48.13 48.69 49.22 48.80 48.34 50.14 48.81 49.49 49.54 49.72 49.82 49.79 50.07 49.86 49.90 50.02 50.67 51.71 52.72 54.08 55.10 56.27 57.02 59.07 66.24 68.01 69.06 68.68 67.37 66.34 65.59 66.80 67.55 67.59 66.76 64.94 63.67 62.67 61.62 60.88 60.14 59.38 59.15 58.92 60.05 59.40 58.35
47.32 48.24 49.00 49.94 49.53 49.44 49.68 48.54 48.75 48.95 49.24 49.11 48.69 48.82 48.53 48.63 48.95 50.16 50.78 52.16 53.08 53.34 54.65 56.33 58.49 58.50 65.53 65.67 63.70 61.61 59.58 58.42 57.77 59.21 62.06 65.15 64.44 63.02 61.96 60.15 59.00 57.91 58.85 58.44 57.80 58.78 58.81 57.99 57.87
48.95 48.27 48.52 49.04 48.87 48.96 46.89 48.33 47.56 48.35 48.71 47.52 47.43 47.10 47.07 46.58 47.04 49.17 49.69 50.79 51.84 51.88 53.41 56.75 56.29 63.49 61.05 57.54 56.27 55.06 53.82 53.11 52.83 53.28 56.13 59.38 60.48 59.13 58.03 56.87 56.97 57.15 56.30 55.88 56.43 56.65 56.26 55.59 55.59
48.29 45.71 48.86 49.03 48.96 47.65 48.33 45.37 45.29 48.02 48.19 46.82 46.40 46.42 45.72 45.58 46.85 46.92 48.43 49.98 49.05 49.83 52.01 53.57 54.72 54.37 53.32 52.75 52.28 51.07 49.69 49.22 48.92 49.83 51.27 53.50 55.52 55.96 54.82 54.29 54.20 54.50 55.42 55.49 55.73 55.51 55.68 54.97 54.05
45.96 46.57 44.03 48.45 47.60 47.16 47.19 44.55 47.52 47.69 46.96 46.85 46.74 46.40 45.26 44.63 45.46 46.77 48.36 49.05 46.66 48.57 49.73 49.77 49.86 48.66 49.30 48.84 49.61 49.18 47.98 46.79 45.81 46.05 47.12 48.52 48.87 50.65 51.31 50.82 50.63 51.85 50.59 51.71 52.55 52.67 53.33 53.51 53.18
45.41 42.16 44.37 45.90 47.69 46.31 45.60 45.95 46.05 47.03 46.73 46.93 47.04 46.18 45.08 44.78 44.98 45.88 47.81 45.77 44.86 47.01 48.03 46.72 46.21 44.99 44.57 44.37 44.48 44.19 45.61 46.75 46.27 44.86 45.06 46.24 47.30 48.12 47.36 47.71 48.87 50.33 49.06 49.37 51.89 52.53 52.26 50.69 49.83
43.01 42.82 44.09 43.74 46.22 45.32 45.05 45.06 45.74 46.01 46.00 46.48 46.89 45.69 44.87 44.08 42.77 44.13 46.70 44.47 44.17 45.42 46.24 45.30 44.34 43.20 42.42 41.83 41.76 42.83 42.02 41.90 42.79 43.34 43.06 43.71 44.55 45.85 46.01 45.36 46.23 45.86 45.30 44.53 45.67 48.42 48.59 46.85 45.25
46.11 44.33 43.59 46.02 46.82 44.14 44.89 45.61 47.68 46.14 45.50 46.21 45.74 44.90 44.28 43.22 42.88 44.24 45.94 43.92 42.99 43.61 44.26 44.40 43.69 43.25 42.76 41.52 40.47 40.89 40.19 40.99 42.35 42.60 42.23 42.02 42.58 42.80 43.39 42.86 42.65 42.89 41.41 41.14 41.34 42.17 43.31 42.00 44.27
44.87 42.41 42.45 45.77 46.53 42.70 44.19 44.26 47.38 47.72 45.24 46.06 45.56 44.47 43.59 41.64 42.01 42.84 44.86 42.64 41.95 41.84 42.24 42.49 42.62 42.85 42.39 42.83 42.57 42.19 41.64 41.38 40.95 41.04 40.68 40.24 40.20 40.57 40.52 40.86 40.44 40.68 40.09 39.49 39.39 39.70 39.29 40.74 40.48
42.84 41.84 42.25 42.44 44.50 43.75 42.63 41.48 44.20 47.53 45.23 43.19 43.67 44.10 42.79 41.48 40.70 41.24 43.41 42.09 41.85 41.17 41.65 41.72 41.35 41.62 42.29 42.84 42.31 41.71 41.68 41.29 39.68 39.14 38.94 38.88 38.89 38.93 39.28 39.05 38.98 38.84 38.87 37.53 37.59 37.88 37.29 36.66 38.60
39.31 45.41 43.24 42.20 40.36 36.95 43.55 35.38 44.22 46.37 39.77 39.84 40.30 40.74 41.02 40.85 40.72 40.51 41.39 41.83 41.08 41.05 42.48 42.19 42.50 42.43 43.26 44.15 42.80 41.21 39.37 37.12 37.88 38.24 38.31 38.15 37.98 37.49 37.71 37.46 37.13 37.41 37.26 36.29 36.39 36.60 36.65 36.26 34.67
41.76 43.92 42.16 41.71 40.00 40.15 40.72 36.16 41.36 43.41 38.67 39.25 39.77 39.75 40.22 39.82 39.39 38.97 39.53 39.33 39.80 40.67 40.61 40.17 39.90 40.42 41.73 41.61 40.72 39.45 37.98 38.54 38.74 38.38 37.56 37.29 36.86 36.61 36.37 36.60 36.12 35.48 35.79 35.45 35.08 35.11 34.73 35.44 34.47
43.45 41.03 39.86 39.44 39.45 32.95 39.02 38.46 39.81 41.12 40.83 41.83 39.84 39.41 39.13 38.75 38.65 38.09 37.59 37.54 37.49 38.72 38.98 39.57 38.48 38.38 40.09 39.67 39.65 39.09 37.99 37.39 37.23 37.28 36.50 36.34 36.15 35.48 35.16 35.29 34.96 34.84 34.34 33.90 34.07 34.20 34.04 33.49 33.57
41.84 39.11 32.68 31.35 30.02 30.10 38.56 38.35 41.04 44.02 41.74 42.96 38.47 38.42 38.51 37.89 36.76 35.54 34.76 34.92 35.67 36.44 37.37 37.53 37.60 36.95 38.21 38.34 38.28 38.26 37.81 37.36 36.59 36.06 35.57 35.27 34.37 33.60 33.34 34.14 33.88 33.59 33.68 33.64 33.67 34.00 33.58 32.94 32.14
38.82 39.67 34.68 28.86 29.46 33.27 33.77 32.24 39.61 38.86 41.66 42.72 40.88 39.52 38.38 36.70 36.24 34.76 34.84 34.96 35.35 36.13 36.63 37.04 36.72 36.31 36.76 37.03 36.73 37.13 37.26 36.79 36.32 35.95 34.82 33.90 32.93 32.80 33.45 33.06 33.08 32.58 32.37 32.07 32.19 32.27 32.18 32.35 31.98
39.32 36.13 41.70 32.84 29.36 30.11 35.78 38.20 37.61 37.38 37.00 39.55 38.36 37.84 36.90 35.95 35.54 34.66 35.06 35.46 35.75 36.13 36.43 36.50 36.02 35.96 36.20 36.26 36.52 36.17 36.35 36.03 35.25 34.95 34.39 33.15 32.45 31.90 31.77 31.61 31.01 30.96 30.62 30.50 29.93 30.33 29.72 29.64 29.48
41.78 42.78 32.65 34.07 28.37 27.71 35.46 36.59 37.07 33.54 34.65 36.84 36.45 36.43 36.62 36.19 35.29 35.10 35.00 35.35 35.84 36.16 36.58 36.53 36.39 35.62 35.72 35.98 35.98 35.68 35.59 35.56 34.62 33.62 32.05 31.58 31.22 30.67 30.11 29.63 29.44 29.17 28.99 28.79 28.18 28.10 28.40 27.21 27.44
36.46 36.21 38.16 38.40 35.90 31.20 30.77 35.09 43.00 42.23 38.58 36.42 37.18 37.30 36.72 35.68 35.22 35.21 35.07 35.39 35.70 36.07 36.01 35.78 35.85 35.20 34.90 35.37 35.24 34.91 34.33 33.54 32.68 31.25 30.56 29.95 29.94 28.96 28.20 27.88 27.58 27.19 26.74 26.82 26.04 25.76 25.92 24.76 24.96
42.22 39.11 38.80 33.36 31.12 33.95 33.46 35.65 39.75 40.67 41.85 39.67 38.35 37.88 37.70 36.98 36.28 35.75 35.24 35.14 35.13 35.02 35.29 35.04 35.32 35.10 35.35 35.24 34.92 33.65 32.42 31.68 30.40 29.29 29.08 29.09 28.06 27.95 26.66 26.30 26.03 25.67 25.28 24.92 24.01 23.23 23.49 22.85 22.72
MSLP
1012.30 1011.49 1010.96 1010.24 1009.44 1008.34 1008.58 1009.30 1009.66 1009.74 1009.79 1010.50 1010.74 1010.61 1010.74 1010.93 1011.25 1012.62 1013.96 1014.19 1014.49 1014.55 1015.08 1016.18 1016.62 1016.96 1017.23 1017.40 1017.84 1018.07 1018.21 1018.28 1018.41 1018.65 1018.94 1019.11 1019.38 1019.63 1019.74 1019.82 1019.86 1019.85 1019.86 1019.89 1019.96 1019.94 1019.84 1019.83 1019.79
1011.76 1011.46 1010.76 1009.48 1008.58 1007.71 1008.51 1009.26 1009.50 1010.02 1010.58 1010.90 1010.93 1010.79 1010.67 1011.40 1012.15 1013.11 1013.61 1014.55 1014.66 1014.61 1015.09 1015.83 1016.68 1016.99 1017.37 1017.58 1017.94 1018.11 1018.29 1018.47 1018.62 1019.02 1019.12 1019.37 1019.58 1019.78 1019.88 1020.06 1020.15 1020.20 1020.23 1020.27 1020.32 1020.36 1020.20 1020.15 1020.01
1012.06 1011.53 1009.91 1008.89 1008.22 1007.70 1008.51 1009.45 1009.84 1010.53 1010.94 1010.92 1010.84 1011.22 1011.29 1012.24 1012.91 1013.49 1014.55 1014.84 1014.74 1014.86 1015.25 1015.79 1016.71 1017.07 1017.46 1017.76 1018.15 1018.35 1018.51 1018.71 1018.89 1019.13 1019.29 1019.52 1019.74 1019.96 1020.23 1020.37 1020.45 1020.49 1020.60 1020.62 1020.67 1020.67 1020.59 1020.46 1020.30
1011.51 1010.74 1010.07 1008.96 1008.38 1009.17 1009.12 1009.79 1010.31 1010.59 1011.09 1011.34 1011.24 1011.22 1012.49 1013.75 1013.83 1014.56 1014.82 1014.89 1014.92 1015.16 1015.39 1016.41 1016.91 1017.24 1017.60 1018.02 1018.18 1018.50 1018.71 1018.81 1018.97 1019.22 1019.54 1019.79 1020.05 1020.27 1020.39 1020.58 1020.69 1020.81 1020.95 1021.04 1021.12 1021.10 1021.06 1020.95 1020.78
1011.33 1010.19 1009.08 1008.74 1009.05 1009.53 1009.96 1010.42 1010.65 1010.57 1010.90 1011.14 1011.52 1011.64 1012.63 1014.12 1014.55 1014.81 1015.00 1015.06 1015.10 1015.42 1015.66 1016.53 1017.20 1017.39 1017.72 1018.01 1018.31 1018.48 1018.70 1019.02 1019.24 1019.39 1019.71 1020.00 1020.26 1020.52 1020.71 1020.85 1021.06 1021.10 1021.26 1021.53 1021.45 1021.56 1021.55 1021.42 1021.31
1010.48 1010.26 1009.05 1008.66 1009.06 1009.78 1010.26 1010.77 1010.83 1010.76 1011.17 1011.59 1011.64 1011.93 1013.44 1014.63 1014.91 1015.27 1015.25 1015.36 1015.26 1015.70 1016.08 1016.52 1017.45 1017.64 1017.87 1018.13 1018.31 1018.60 1018.91 1019.19 1019.40 1019.70 1019.98 1020.26 1020.58 1020.78 1020.97 1021.21 1021.32 1021.43 1021.65 1021.82 1021.88 1021.97 1021.90 1021.78 1021.79
1010.84 1010.23 1009.21 1009.19 1009.40 1010.09 1010.39 1011.21 1011.07 1010.92 1011.30 1011.81 1012.29 1012.22 1013.75 1014.79 1015.46 1015.56 1015.62 1015.70 1015.80 1016.05 1016.37 1016.43 1017.09 1017.60 1018.00 1018.21 1018.47 1018.64 1018.91 1019.22 1019.48 1019.85 1020.12 1020.39 1020.64 1020.93 1021.21 1021.45 1021.58 1021.77 1022.00 1022.14 1022.22 1022.24 1022.25 1022.26 1022.21
1011.56 1010.84 1010.12 1009.82 1009.79 1010.05 1010.97 1011.39 1011.61 1011.63 1011.71 1012.69 1012.90 1012.71 1013.97 1015.37 1015.86 1015.79 1015.85 1015.98 1016.21 1016.47 1016.50 1016.57 1016.85 1017.34 1017.36 1017.88 1018.41 1018.74 1019.05 1019.29 1019.58 1019.95 1020.37 1020.66 1020.95 1021.23 1021.46 1021.62 1021.80 1021.80 1022.01 1022.24 1022.36 1022.52 1022.63 1022.76 1022.79
1012.30 1011.14 1010.09 1010.17 1010.45 1010.33 1011.47 1011.54 1012.15 1012.53 1012.47 1012.93 1013.66 1014.21 1015.69 1016.08 1016.00 1015.91 1016.05 1016.30 1016.64 1017.15 1017.23 1017.06 1017.05 1017.93 1017.84 1017.59 1018.26 1018.64 1018.97 1019.31 1019.70 1020.05 1020.45 1020.76 1020.92 1020.95 1021.42 1021.76 1021.98 1022.16 1022.24 1022.39 1022.59 1022.74 1022.82 1022.80 1022.78
1011.92 1011.18 1010.48 1010.98 1010.89 1011.05 1011.65 1011.92 1012.17 1012.63 1012.77 1013.36 1014.52 1015.52 1016.16 1016.26 1016.31 1016.29 1016.39 1016.50 1017.02 1017.46 1017.84 1017.93 1017.53 1017.90 1018.22 1018.06 1018.05 1018.14 1018.57 1019.00 1019.31 1019.80 1020.33 1020.44 1020.53 1020.74 1021.36 1022.02 1022.27 1022.48 1022.51 1022.64 1022.89 1022.89 1022.78 1022.61 1022.60
1012.17 1011.45 1011.56 1011.84 1012.00 1012.15 1012.15 1012.52 1012.83 1012.90 1013.05 1013.63 1014.37 1015.45 1016.60 1016.76 1016.98 1017.13 1017.37 1017.74 1018.04 1018.15 1018.07 1018.34 1018.31 1018.02 1018.42 1018.29 1018.12 1018.30 1018.58 1018.78 1019.26 1019.52 1019.93 1020.19 1020.61 1021.21 1021.70 1022.13 1022.48 1022.73 1022.85 1022.90 1023.00 1022.75 1022.81 1023.05 1023.12
1012.52 1012.33 1012.42 1012.55 1012.92 1013.09 1012.93 1012.87 1013.09 1013.52 1014.33 1015.43 1016.21 1016.74 1017.07 1017.38 1017.77 1018.11 1018.27 1018.51 1018.62 1018.55 1018.57 1018.59 1018.46 1018.39 1018.62 1018.63 1018.67 1018.92 1019.46 1019.90 1020.23 1020.36 1020.32 1020.35 1020.85 1021.47 1021.70 1022.17 1022.66 1022.99 1023.19 1023.18 1023.19 1023.26 1023.09 1023.06 1023.32
1012.68 1012.49 1012.99 1013.13 1013.49 1013.55 1013.70 1013.49 1013.57 1013.98 1015.35 1016.31 1016.99 1017.40 1017.77 1018.15 1018.48 1018.73 1018.97 1019.05 1019.15 1019.12 1019.09 1018.82 1018.36 1018.32 1018.66 1019.00 1019.49 1020.10 1020.70 1021.21 1021.48 1021.46 1021.37 1021.17 1021.40 1021.83 1022.23 1022.90 1023.34 1023.60 1023.56 1023.69 1023.70 1023.44 1023.30 1023.20 1023.38
1013.05 1013.11 1012.99 1013.17 1013.34 1013.61 1013.82 1013.52 1014.26 1014.48 1015.81 1016.60 1017.26 1017.81 1018.38 1018.90 1019.25 1019.24 1019.48 1019.57 1019.76 1019.99 1019.89 1019.42 1018.42 1018.30 1019.12 1019.83 1020.38 1021.09 1021.63 1022.10 1022.30 1022.55 1022.48 1022.26 1022.39 1022.78 1023.18 1023.57 1023.84 1023.99 1024.11 1024.21 1024.15 1024.01 1023.82 1023.67 1023.64
1013.50 1013.19 1012.53 1012.49 1012.98 1013.40 1013.93 1013.70 1013.78 1014.87 1015.93 1016.59 1017.28 1017.98 1018.70 1019.24 1019.58 1019.89 1020.18 1020.24 1020.73 1020.76 1020.63 1020.36 1020.11 1020.20 1020.18 1020.63 1020.99 1021.76 1022.38 1022.91 1023.30 1023.60 1023.42 1023.48 1023.49 1023.79 1023.90 1024.34 1024.47 1024.60 1024.61 1024.54 1024.46 1024.45 1024.18 1024.03 1023.92
1013.44 1013.06 1012.10 1011.69 1012.79 1013.50 1013.86 1012.49 1013.29 1014.91 1015.70 1016.18 1017.01 1017.80 1018.75 1019.47 1019.88 1020.31 1020.63 1020.98 1021.52 1021.43 1021.33 1021.34 1021.33 1021.29 1021.30 1021.43 1021.74 1022.27 1023.11 1023.53 1024.00 1024.35 1024.50 1024.46 1024.55 1024.50 1024.81 1024.96 1025.49 1025.37 1025.26 1025.25 1024.95 1024.76 1024.40 1024.22 1024.01
1012.92 1011.88 1011.37 1011.63 1012.42 1012.95 1013.46 1012.25 1013.67 1014.81 1015.36 1015.74 1016.63 1017.54 1018.50 1019.32 1020.02 1020.66 1021.01 1021.64 1022.03 1022.02 1022.07 1022.21 1022.29 1022.28 1022.29 1022.52 1022.86 1023.46 1023.79 1024.04 1024.59 1025.09 1025.36 1025.45 1025.42 1025.47 1025.52 1025.56 1025.85 1025.55 1025.45 1025.38 1024.97 1024.79 1024.64 1024.68 1024.56
1011.05 1011.23 1011.28 1011.40 1012.04 1012.65 1012.56 1012.38 1013.35 1014.44 1014.93 1015.29 1016.20 1017.26 1018.23 1019.16 1020.18 1021.00 1021.36 1022.02 1022.39 1022.52 1022.66 1022.82 1022.98 1023.09 1023.12 1023.11 1023.45 1024.05 1024.38 1024.99 1025.39 1025.57 1025.82 1026.05 1026.08 1026.07 1026.03 1026.14 1026.31 1026.22 1026.27 1026.35 1026.06 1025.61 1025.43 1025.60 1025.40
1011.25 1011.34 1011.01 1011.04 1011.90 1012.55 1012.08 1011.86 1012.06 1013.62 1014.59 1015.03 1015.97 1017.04 1018.11 1019.25 1020.51 1021.14 1021.63 1022.32 1022.63 1022.90 1023.07 1023.25 1023.36 1023.63 1023.58 1023.64 1023.91 1024.10 1024.78 1025.31 1025.72 1026.22 1026.58 1026.77 1026.89 1026.89 1026.95 1027.06 1027.07 1027.05 1027.25 1027.40 1027.19 1026.91 1026.52 1026.41 1026.06
1011.98 1011.81 1011.46 1011.42 1011.96 1013.01 1012.02 1011.42 1011.61 1012.31 1013.65 1014.56 1015.64 1016.85 1018.09 1019.54 1020.42 1021.17 1021.66 1022.41 1022.82 1023.15 1023.33 1023.53 1023.63 1023.76 1023.87 1023.87 1024.07 1024.40 1025.09 1025.85 1026.46 1027.01 1027.29 1027.55 1027.77 1027.94 1027.98 1028.13 1028.29 1028.22 1028.15 1028.24 1028.16 1027.87 1027.60 1027.38 1027.34
1012.21 1011.96 1011.86 1011.90 1012.23 1012.93 1012.36 1010.88 1010.85 1011.38 1013.37 1015.09 1016.11 1016.97 1018.18 1019.30 1020.27 1021.14 1021.69 1022.24 1022.91 1023.32 1023.51 1023.63 1023.84 1023.91 1024.05 1024.21 1024.59 1025.10 1025.69 1026.27 1026.96 1027.50 1027.85 1028.14 1028.19 1028.31 1028.41 1028.58 1028.81 1029.14 1029.27 1029.39 1029.46 1029.23 1028.79 1028.34 1028.14
1012.06 1012.00 1012.53 1012.69 1013.04 1012.25 1012.46 1009.64 1009.69 1010.39 1013.11 1014.85 1016.22 1017.35 1018.37 1019.44 1020.49 1021.29 1021.81 1022.24 1022.86 1023.35 1023.64 1023.79 1023.91 1024.07 1024.22 1024.18 1024.58 1025.10 1025.91 1026.71 1027.70 1028.30 1028.88 1029.25 1029.49 1029.67 1029.69 1029.77 1029.82 1029.87 1029.73 1029.88 1030.22 1030.23 1030.08 1029.71 1029.23
1012.37 1012.82 1013.21 1013.37 1013.33 1012.89 1012.34 1012.25 1009.58 1010.63 1012.44 1013.69 1015.55 1017.08 1018.37 1019.70 1020.60 1021.32 1022.04 1022.70 1023.22 1023.58 1023.93 1024.34 1024.56 1024.74 1024.84 1024.97 1025.39 1025.89 1026.46 1027.27 1027.90 1028.43 1028.93 1029.42 1029.93 1030.35 1030.69 1030.84 1030.93 1030.74 1030.79 1031.02 1030.88 1030.77 1031.00 1030.89 1030.53
1013.47 1013.87 1014.41 1014.59 1014.12 1012.31 1012.05 1011.99 1008.39 1009.79 1010.58 1012.39 1015.04 1016.70 1018.03 1019.54 1020.66 1021.67 1022.55 1023.21 1023.68 1024.08 1024.39 1024.77 1025.02 1025.26 1025.46 1025.70 1026.14 1026.65 1027.18 1027.86 1028.50 1029.12 1029.61 1030.10 1030.46 1030.84 1030.99 1031.02 1031.27 1031.85 1031.81 1031.46 1031.42 1031.32 1031.30 1031.66 1031.40
1013.64 1013.91 1014.33 1014.46 1014.04 1011.74 1011.29 1010.90 1008.66 1009.66 1010.89 1012.01 1014.32 1016.32 1017.79 1019.00 1020.20 1021.50 1022.45 1023.17 1023.84 1024.33 1024.77 1025.15 1025.40 1025.64 1026.02 1026.39 1026.81 1027.23 1027.72 1028.39 1028.95 1029.52 1030.16 1030.63 1030.98 1031.45 1031.70 1031.51 1031.70 1031.86 1032.12 1032.14 1031.66 1031.31 1031.37 1031.71 1031.92
1012.71 1012.98 1013.19 1013.47 1013.39 1012.03 1012.09 1010.29 1009.41 1010.81 1011.49 1012.56 1014.47 1016.34 1017.85 1019.07 1020.13 1021.27 1022.14 1022.87 1023.58 1024.17 1024.62 1025.05 1025.48 1025.99 1026.56 1026.97 1027.37 1027.89 1028.31 1028.86 1029.39 1029.85 1030.26 1030.72 1031.75 1032.24 1032.30 1032.03 1031.95 1031.69 1032.41 1032.22 1032.46 1031.99 1031.76 1032.17 1032.31
1012.21 1012.39 1013.22 1014.24 1014.46 1013.17 1010.52 1009.68 1010.24 1011.37 1012.33 1013.08 1014.51 1016.20 1017.60 1018.72 1019.82 1020.95 1022.02 1022.85 1023.57 1024.19 1024.77 1025.34 1025.84 1026.37 1026.91 1027.41 1027.86 1028.34 1028.77 1029.18 1029.68 1030.41 1031.06 1031.69 1031.73 1031.96 1032.76 1032.49 1032.30 1032.42 1031.78 1033.13 1032.98 1032.51 1031.96 1032.78 1032.25
1011.52 1012.00 1013.50 1014.44 1013.24 1011.57 1008.85 1008.43 1008.58 1010.60 1011.84 1013.02 1014.31 1015.43 1016.86 1018.28 1019.47 1020.55 1021.59 1022.39 1023.23 1023.99 1024.70 1025.38 1025.93 1026.36 1027.01 1027.62 1028.21 1028.74 1029.28 1029.80 1030.38 1030.97 1031.22 1031.82 1032.25 1032.17 1032.44 1033.37 1033.23 1032.62 1032.26 1033.14 1033.18 1032.81 1032.70 1032.64 1032.18
1011.87 1011.61 1011.57 1011.70 1011.30 1010.08 1008.84 1007.39 1007.10 1008.10 1010.15 1011.63 1013.22 1014.66 1016.03 1017.44 1018.79 1019.97 1021.18 1022.23 1023.11 1023.89 1024.53 1025.19 1025.77 1026.39 1027.13 1027.82 1028.45 1029.16 1029.72 1030.20 1030.62 1030.97 1031.40 1031.90 1032.43 1032.67 1032.78 1033.65 1033.84 1033.04 1032.66 1033.38 1033.33 1033.27 1032.86 1032.51 1032.20
1010.14 1009.93 1010.52 1010.28 1010.28 1009.77 1009.05 1007.21 1007.82 1008.60 1009.57 1011.39 1012.89 1014.35 1015.90 1017.17 1018.33 1019.54 1020.76 1021.90 1022.84 1023.69 1024.39 1025.05 1025.75 1026.49 1027.04 1027.67 1028.42 1029.14 1029.91 1030.44 1030.73 1031.13 1031.61 1032.15 1032.83 1033.19 1033.36 1033.87 1033.86 1033.11 1033.13 1033.50 1033.54 1033.21 1033.01 1032.53 1032.07
Wind_Speed
9 6 4 4 6 5 4 5 2 3 2 6 3 6 8 10 10 6 3 7 3 12 15 13 11 11 11 15 10 9 9 10 11 13 14 15 14 14 13 13 12 13 13 14 13 13 12 11 10
6 5 4 3 6 6 6 5 4 6 5 3 1 2 0 11 10 8 6 5 3 11 12 13 11 12 10 13 10 9 9 9 11 12 13 14 14 13 13 13 13 12 13 14 13 13 13 11 10
6 4 4 3 4 4 5 3 6 5 3 1 1 3 4 8 10 5 5 5 5 9 11 12 11 12 11 12 10 9 8 8 10 11 13 13 14 13 13 13 13 13 14 14 14 13 13 12 11
4 4 4 7 3 3 4 5 4 5 3 1 2 7 7 9 5 6 4 3 6 7 9 13 7 12 11 10 10 8 8 8 9 12 11 14 14 13 13 13 13 12 13 14 14 14 13 13 12
4 3 4 3 4 5 3 4 2 3 4 4 1 5 6 7 8 7 7 4 6 7 7 10 5 6 11 10 9 8 7 7 9 11 14 14 14 13 13 13 11 12 13 13 14 14 13 13 13
4 3 6 6 6 5 3 3 2 3 2 6 3 4 8 7 8 7 5 6 5 6 5 10 6 4 4 9 10 9 8 8 9 11 14 14 13 13 13 12 12 12 12 12 13 13 13 13 13
4 4 5 3 5 6 5 3 6 4 4 5 2 4 7 10 7 4 4 5 4 6 5 6 9 8 4 4 6 8 9 9 9 11 13 12 12 12 12 12 13 12 11 12 12 13 12 12 12
4 4 3 4 6 6 6 5 1 4 5 3 3 4 7 8 6 2 4 5 6 5 5 5 7 4 9 7 9 8 8 7 9 11 11 10 10 11 10 10 9 12 12 11 11 12 12 10 10
2 5 5 3 5 5 6 7 4 1 3 2 2 5 5 5 3 2 4 5 7 5 4 0 4 4 6 5 8 8 7 8 9 11 11 11 6 8 9 11 9 10 9 10 11 10 8 3 6
4 4 1 1 1 3 7 4 5 5 8 7 6 6 5 4 4 1 1 2 2 3 3 3 4 4 3 4 5 7 8 7 8 9 12 7 8 6 9 8 10 10 10 10 9 5 2 6 6
1 5 3 4 2 2 4 5 3 7 9 3 3 5 5 4 4 3 3 4 4 5 3 4 4 3 3 4 3 3 2 2 2 7 9 8 6 6 5 4 3 4 6 4 4 4 6 7 6
6 3 2 1 2 3 6 3 6 7 3 5 5 4 3 4 4 5 5 6 6 5 5 5 4 4 3 1 1 4 5 5 5 7 6 3 4 4 5 4 4 5 2 4 3 3 4 7 6
7 3 3 3 4 6 3 9 9 7 4 3 4 4 4 4 4 5 5 6 7 8 8 7 4 6 4 6 7 8 8 8 8 8 9 6 5 5 6 6 5 4 3 4 4 2 4 5 4
4 4 6 6 10 8 8 10 2 5 6 5 5 4 4 4 5 4 7 7 8 8 9 9 3 7 10 11 11 9 8 8 9 8 9 10 7 6 6 5 5 4 5 4 4 5 4 3 3
3 8 10 12 13 9 8 10 12 9 9 8 6 5 3 4 4 6 7 8 9 7 8 9 11 11 13 12 12 10 9 9 9 8 12 12 10 10 9 6 6 7 6 5 4 3 4 4 4
5 5 9 7 8 5 10 11 10 10 11 9 6 5 3 3 4 6 6 8 7 7 9 10 9 11 12 12 11 9 9 9 9 8 8 12 12 11 9 7 7 7 5 4 4 5 5 5 6
9 11 10 6 11 6 12 6 9 10 11 10 8 6 4 4 4 5 6 8 7 6 8 11 11 12 12 13 12 12 13 10 10 8 9 11 11 10 8 7 4 4 6 7 7 7 7 7 7
11 14 11 12 8 10 12 15 11 11 13 13 10 8 7 5 3 4 6 8 7 7 9 11 9 11 11 10 11 9 10 9 9 9 9 11 9 10 8 8 9 9 8 8 8 9 9 9 9
13 13 15 11 3 6 14 16 14 14 12 13 12 10 8 6 4 5 7 8 9 8 9 9 10 9 7 7 8 9 9 9 10 10 14 14 13 13 11 8 9 9 10 11 11 9 9 8 11
17 16 16 14 5 5 15 19 17 14 16 15 13 11 10 8 8 7 8 8 8 9 8 9 8 8 6 6 7 7 9 10 10 9 12 14 15 14 12 11 10 11 8 11 11 10 7 6 9
16 18 15 17 3 11 15 22 24 20 11 7 9 8 9 11 11 9 10 10 10 9 8 9 9 9 9 12 10 10 11 9 9 9 9 11 14 14 12 12 10 10 9 8 9 10 11 7 7
17 16 16 15 8 11 3 13 10 12 14 14 13 12 12 11 11 10 11 11 11 9 8 11 12 12 10 10 10 13 10 10 9 9 9 10 14 14 13 12 11 10 7 9 8 9 8 7 7
9 2 8 11 14 16 18 11 6 3 13 19 17 16 14 13 13 13 12 12 12 11 11 12 13 12 10 12 12 10 12 9 8 8 11 11 11 12 12 11 11 10 7 9 10 9 10 7 6
10 7 3 3 7 14 15 17 11 11 12 14 17 18 17 16 14 13 12 12 11 11 11 11 14 14 11 12 13 13 13 11 8 8 7 7 7 8 11 10 9 9 8 8 7 8 9 8 7
13 8 4 6 7 10 1 14 15 6 5 11 21 21 20 19 17 16 15 13 12 12 11 11 12 14 14 14 14 14 14 13 11 9 8 7 7 6 8 8 8 7 8 9 8 7 8 8 8
21 18 8 7 7 5 1 11 6 5 5 6 18 19 19 19 16 16 15 14 14 14 13 14 14 14 13 13 14 12 12 8 8 8 7 6 6 5 6 7 7 8 10 9 9 7 6 7 6
12 17 9 3 2 5 8 11 3 6 7 12 18 19 19 20 18 18 16 14 14 13 13 13 13 13 12 12 11 11 10 10 9 9 7 6 6 5 7 9 8 9 9 9 9 6 7 7 7
11 11 7 5 7 8 9 12 10 11 14 16 20 21 21 19 18 17 16 15 14 13 13 13 13 13 13 12 10 9 10 9 8 7 8 8 7 8 8 8 8 8 9 9 9 7 7 8 7
10 13 10 7 9 3 4 6 4 10 19 21 20 21 21 20 19 18 16 15 14 14 14 13 13 13 12 11 11 10 9 8 8 8 8 7 7 7 7 6 6 7 8 8 8 9 9 9 10
21 14 21 7 7 7 4 8 4 4 12 16 18 18 18 19 18 17 16 15 14 14 14 14 13 12 11 12 11 11 9 8 8 8 7 6 5 4 4 4 6 7 7 8 9 10 10 11 11
Wind_Direction
279 295 286 244 232 242 134 107 48 106 126 44 40 358 41 33 17 40 110 101 115 155 152 166 148 139 145 134 140 138 140 139 131 130 127 115 109 105 96 86 79 66 60 57 54 55 58 56 54
310 298 234 280 252 192 118 118 136 64 58 41 93 204 41 79 56 99 132 93 147 158 158 168 151 147 145 137 145 146 149 149 140 129 123 121 112 99 89 82 77 70 64 60 58 57 57 54 53
281 280 265 259 289 78 127 148 100 92 72 11 141 352 16 42 53 61 44 72 143 155 165 143 147 145 146 145 150 154 157 145 136 130 128 124 106 94 91 82 74 68 62 58 56 54 56 54 57
290 200 218 250 134 73 84 123 103 144 115 62 345 104 101 44 33 21 76 70 141 155 170 123 143 153 154 155 158 161 160 151 140 139 128 115 104 97 92 85 74 70 64 58 57 55 54 54 54
234 251 247 225 135 126 121 90 137 154 111 120 220 116 82 58 72 59 104 97 125 152 163 142 168 179 166 169 169 166 156 142 134 135 128 117 110 105 99 92 84 75 68 62 59 57 54 52 53
236 282 240 210 165 152 156 121 189 186 120 116 197 150 79 77 54 58 69 76 104 126 146 144 161 212 169 183 175 168 152 141 138 137 128 122 115 107 99 94 85 78 74 65 62 58 55 54 49
296 268 301 303 166 187 175 140 210 185 162 117 37 189 113 70 46 56 72 90 100 111 159 174 176 186 216 208 184 164 158 149 145 142 134 128 124 115 108 105 98 88 82 69 63 53 51 52 52
288 265 232 227 197 207 144 177 120 243 117 100 346 186 160 45 7 68 85 99 97 101 132 172 171 211 201 175 166 161 159 151 151 144 129 127 116 114 124 124 101 104 101 85 75 60 53 53 48
297 245 225 195 200 207 152 196 157 81 252 116 55 30 32 6 348 135 149 118 113 84 49 59 181 200 263 198 155 150 159 152 130 136 138 141 148 157 141 84 94 83 92 90 87 74 63 78 84
260 261 210 5 197 220 167 233 167 221 197 181 147 106 32 22 28 63 48 103 79 48 17 11 287 173 229 253 204 193 162 181 179 162 165 164 171 116 104 95 84 76 72 82 76 69 126 10 16
164 271 98 176 199 283 203 223 211 247 244 334 254 96 48 51 56 60 51 40 5 351 355 351 308 237 214 211 203 220 180 169 184 174 182 180 122 123 117 109 82 76 52 62 38 32 45 42 24
251 238 250 131 182 210 226 280 234 243 60 58 55 62 79 71 54 34 23 14 3 356 359 331 289 246 178 193 55 68 60 49 42 45 38 118 104 119 112 95 80 56 29 76 65 55 58 58 28
242 210 216 205 200 231 278 248 261 220 141 117 101 97 84 64 35 40 17 24 5 5 357 346 275 210 150 90 78 65 61 55 45 35 31 49 73 83 73 69 59 54 47 33 37 21 45 58 11
17 279 251 220 226 226 232 246 198 173 154 155 153 120 87 55 20 21 21 18 16 11 7 340 136 105 87 80 78 71 60 52 50 40 33 43 57 65 66 70 63 63 52 41 30 14 22 26 4
285 276 255 238 229 233 216 238 228 136 166 163 162 146 107 65 44 32 16 21 20 21 15 33 56 73 83 89 86 81 74 67 57 46 39 45 54 65 64 48 55 46 27 24 30 11 17 358 342
254 253 262 102 167 172 203 263 149 165 181 187 180 168 154 82 50 41 30 42 30 33 46 58 72 74 82 83 82 81 77 71 62 56 49 52 51 51 53 56 42 44 46 25 27 20 3 1 354
211 264 230 254 198 153 205 250 157 182 200 203 202 192 179 148 94 56 49 55 49 52 74 77 75 76 83 83 84 74 73 70 67 62 57 53 56 63 69 60 47 42 42 27 18 26 17 15 358
247 223 251 252 170 218 211 250 162 190 211 215 203 196 192 177 102 76 78 74 75 76 81 88 84 85 89 88 90 92 84 80 73 67 64 59 55 55 56 58 53 47 44 37 26 31 20 26 353
283 284 263 256 143 261 240 252 247 193 211 216 209 203 194 174 133 116 101 95 94 89 95 93 97 94 93 91 93 87 91 84 76 67 65 59 57 60 58 56 50 55 47 38 32 18 20 22 357
247 259 258 259 229 244 265 263 256 213 217 219 216 207 191 168 159 136 125 110 100 102 104 106 106 104 96 87 92 94 96 87 84 77 71 66 63 54 53 50 44 41 44 41 34 31 17 27 14
236 244 254 260 266 242 274 267 253 237 211 222 230 209 183 180 161 151 145 127 121 114 115 114 108 101 99 105 105 103 103 98 90 80 73 65 67 64 61 59 55 47 40 36 28 20 26 11 24
246 235 248 263 258 261 165 287 281 194 208 215 203 192 183 167 159 151 146 136 121 112 106 104 103 103 108 117 111 100 95 94 85 79 75 63 57 54 52 53 50 47 48 46 26 21 15 4 13
251 78 219 238 255 274 255 264 276 162 214 210 199 190 179 169 162 153 141 131 123 126 117 112 108 102 96 102 103 101 103 101 102 97 92 86 74 59 49 43 41 42 41 32 28 22 16 9 356
128 111 110 236 260 255 238 235 261 198 229 197 186 184 171 167 159 145 135 133 124 122 118 113 111 104 101 101 101 102 105 104 98 91 81 70 62 57 50 52 50 37 28 30 25 18 16 360 351
200 177 230 235 208 256 238 221 255 176 184 188 181 180 174 165 159 153 152 144 139 132 126 122 118 111 106 103 99 98 99 98 93 86 74 68 60 52 46 46 44 36 27 17 16 13 9 359 343
201 196 195 236 213 247 63 233 233 40 90 176 174 175 172 169 165 163 161 153 146 147 144 136 126 118 114 110 107 103 98 91 89 89 93 87 76 48 46 46 44 41 22 15 4 358 2 345 324
187 222 232 22 176 280 215 239 190 163 167 168 168 172 177 174 171 168 164 162 157 154 149 139 133 125 120 114 109 107 108 107 109 99 88 83 81 72 36 33 31 22 30 3 355 347 353 328 320
208 154 164 194 215 231 243 251 232 204 190 180 179 181 178 176 173 172 171 168 163 158 151 148 143 135 130 124 120 115 115 109 103 100 95 78 64 49 39 18 11 12 15 357 344 339 332 318 322
176 202 218 207 228 249 274 236 133 201 189 186 186 184 179 177 176 173 172 172 167 164 161 155 150 142 140 135 131 127 122 117 110 98 83 72 60 42 36 10 349 358 2 345 337 329 320 321 316
220 208 205 206 186 232 291 258 120 93 177 184 187 182 180 181 176 174 174 173 170 169 167 165 158 154 151 146 141 135 133 122 103 91 84 71 56 41 34 346 342 356 351 337 330 325 324 320 317